sat.trackr.live / text

‹ back to catalog

YAOGAN-9 01A

NORAD 36413 · 2010-009A

PAYLOAD ACTIVE UNKNOWN

§ Identity

Operator
Country
PRC
Launch date
2010-03-05
Launch site
JSC
Launch vehicle
Mass (kg)
RCS (m²)
2.70

External: N2YO · Heavens-Above · Gunter

§ Orbital elements

Epoch: 2026-09-20T00:28:12.301248Z

Period
107.01 min
Inclination
63.3615°
Eccentricity
0.0545561
Mean motion
13.45717542 rev/d
Perigee alt
680.7 km
Apogee alt
1,495.4 km
Semi-major
7,466.2 km
B*
3.8823e-5
RAAN
112.7812°
Arg perigee
22.5123°
Mean anomaly
339.8881°
Rev number
81,273

§ Raw data

YAOGAN-9 01A1 36413U 10009A   26263.01958682 -.00000036  00000+0  38823-4 0  99922 36413  63.3615 112.7812 0545561  22.5123 339.8881 13.45717542812736

JSON: /api/v1/satellites/36413 · /tle

For live sub-satellite position, see the globe view (requires WebGL).

§ Visibility from observer

Set your observer location to see the next 7 days of passes ≥ 10°. The values pass through the URL so the page stays shareable.

No JS? Fill the form by hand. The geolocation button needs JavaScript.